#timestamp,LO_Frequency,Hit,StdDev 
1551088815.1,286046998.7,N
1551088835.9,286046998.1,N
1551088855.7,286046998.3,N
1551088875.6,286046999.1,N
1551088895.4,286047000.6,N
1551088915.2,286046999.3,N
1551088935.1,286046999.5,N
1551088936.0,286046999.5,N
1551088955.8,286046999.1,N
1551088975.6,286046996.7,Y
1551088995.5,286046999.0,P
1551089015.3,286046996.7,P
1551089035.2,286046997.8,N
1551089055.9,286046997.0,Y
1551089075.7,286047000.8,P
1551089095.6,286047000.7,N
1551089115.4,286047000.6,N
1551089135.3,286047000.2,N
1551089155.1,286047002.5,N
1551089156.0,286047002.5,N
1551089175.8,286047002.2,N
1551089195.7,286046999.7,N
1551089215.5,286046998.2,N
1551089235.3,286046998.9,N
1551089255.2,286046997.0,N
1551089275.0,286046996.8,N
1551089275.9,286046996.8,N
1551089295.8,286046997.0,N
1551089315.6,286046998.1,N
1551089335.4,286047002.7,N
1551089355.3,286047002.6,N
1551089375.1,286047001.0,N
1551089395.9,286046998.5,N
1551089415.7,286046999.8,N
1551089435.5,286047004.3,N
1551089455.4,286047002.7,N
1551089475.2,286047002.7,N
1551089495.0,286047000.4,N
1551089495.9,286047000.4,N
1551089515.8,286047002.2,N
1551089535.6,286047002.8,N
1551089555.5,286046999.9,N
1551089575.3,286046998.4,N
1551089595.1,286046996.5,N
1551089615.9,286046997.7,N
1551089635.7,286046998.0,N
1551089655.6,286046996.5,N
1551089675.4,286046998.8,N
1551089695.2,286047000.9,N
1551089715.1,286047004.1,N
1551089716.0,286047004.1,N
1551089735.8,286047005.9,N
1551089755.6,286047004.9,N
1551089775.5,286047004.6,N
1551089795.3,286047005.0,N
1551089815.2,286047004.7,N
1551089835.9,286047006.4,N
1551089855.7,286047006.3,N
1551089875.6,286047008.7,N
1551089895.4,286047008.8,N
1551089915.3,286047008.6,N
1551089935.1,286047007.5,N
1551089936.0,286047007.5,N
1551089955.8,286047005.9,N
1551089975.7,286047002.9,N
1551089995.5,286047005.9,N
1551090015.3,286047005.9,N
1551090035.2,286047005.7,N
1551090055.0,286047004.9,N
1551090055.9,286047004.9,N
1551090075.8,286047007.1,N
1551090095.6,286047007.5,N
1551090115.4,286047007.2,N
1551090135.3,286047005.0,N
1551090155.1,286047007.5,N
1551090175.9,286047006.3,N
1551090195.7,286047005.2,N
1551090215.5,286047011.9,Y
1551090235.4,286047000.1,P
1551090255.2,286047002.6,N
1551090275.0,286047002.2,N
1551090275.9,286047002.2,N
1551090295.8,286047002.6,N
1551090315.6,286047002.7,N
1551090335.5,286046998.3,N
1551090355.3,286046998.1,N
1551090375.1,286047000.2,N
1551090395.9,286046998.7,N
1551090415.7,286046998.8,N
1551090435.5,286046998.6,N
1551090455.4,286046998.3,N
1551090475.2,286047001.2,N
1551090495.1,286047000.4,N
1551090496.0,286047000.4,N
1551090515.8,286046998.3,N
1551090535.6,286046998.3,N
1551090555.5,286046997.0,N
1551090575.3,286046997.0,N
1551090595.2,286046995.8,N
1551090615.9,286046996.2,N
1551090635.7,286046994.0,N
1551090655.6,286046993.3,N
1551090675.4,286046994.7,N
1551090695.2,286046992.2,N
1551090715.1,286046994.4,N
1551090716.0,286046994.4,N
1551090735.8,286046994.1,N
1551090755.7,286046994.4,N
1551090775.5,286046994.5,N
1551090795.3,286046994.0,N
1551090815.2,286046993.0,N
1551090835.0,286046990.6,Y
1551090835.9,286046990.6,P
1551090855.8,286046995.1,N
1551090875.6,286046995.3,N
1551090895.4,286046997.8,N
1551090915.3,286046995.0,N
1551090935.1,286046996.1,N
1551090955.8,286046997.8,N
1551090975.7,286046997.0,N
1551090995.5,286046995.3,N
1551091015.4,286046997.1,N
1551091035.2,286046997.4,N
1551091055.0,286046996.7,N
1551091055.9,286046996.7,N
1551091075.8,286046999.4,N
1551091095.6,286046998.5,N
1551091115.4,286047000.8,N
1551091135.3,286047001.3,N
1551091155.1,286047003.4,N
1551091175.9,286047005.3,N
1551091195.7,286047004.9,N
1551091215.5,286047005.3,N
1551091235.4,286047004.6,N
1551091255.2,286047003.4,N
1551091275.0,286047002.9,N
1551091276.0,286047002.9,N
1551091295.8,286047003.2,N
1551091315.6,286047007.3,N
1551091335.5,286047007.0,N
1551091355.3,286047007.3,N
1551091375.1,286047006.9,N
1551091395.9,286047006.8,N
1551091415.7,286047008.3,N
1551091435.6,286047008.6,N
1551091455.4,286047010.8,N
1551091475.2,286047010.4,N
1551091495.1,286047009.8,N
1551091496.0,286047009.8,N
1551091515.8,286047009.4,N
1551091535.6,286047012.0,N
1551091555.5,286047015.3,Y
1551091575.3,286047008.5,P
1551091595.2,286047009.0,P
1551091615.0,286047010.6,P
1551091615.9,286047010.6,Y
1551091635.7,286046998.3,P
1551091655.6,286046998.5,N
1551091675.4,286046997.7,N
1551091695.3,286046999.0,N
1551091715.1,286046997.9,N
1551091735.8,286046997.8,N
1551091755.7,286046997.8,N
1551091775.5,286046996.6,N
1551091795.3,286046997.0,N
1551091815.2,286046997.1,N
1551091835.0,286046997.6,N
1551091835.9,286046997.6,N
1551091855.8,286046996.1,N
1551091875.6,286046997.6,N
1551091895.4,286046995.7,N
1551091915.3,286046994.1,N
1551091935.1,286046995.3,N
1551091955.9,286046995.5,N
1551091975.7,286046995.4,N
1551091995.5,286046994.9,N
1551092015.4,286046995.7,N
1551092035.2,286046993.5,N
1551092055.0,286046991.9,N
1551092055.9,286046991.9,N
1551092075.8,286046990.5,Y
1551092095.6,286046999.6,P
1551092115.5,286046997.9,N
1551092135.3,286046994.9,P
1551092155.1,286046997.6,N
1551092175.9,286046997.5,N
1551092195.7,286046997.8,N
1551092215.6,286046996.9,N
1551092235.4,286046998.6,N
1551092255.2,286046998.6,N
1551092275.1,286046998.6,N
1551092276.0,286046998.6,N
1551092295.8,286047001.2,N
1551092315.6,286047002.6,N
1551092335.5,286047000.1,N
1551092355.3,286047002.8,N
1551092375.2,286047002.3,N
1551092395.9,286047000.8,N
